Location: *
(33.8649°S, 62.1526°E)
Time: 04:47:47
(UTC+00:00)

USA 229 DEB - Pass Details

Date: 17 January 2021
Orbit: 965 x 1247 km, 63.4° (Epoch: 26 February)

Event Time Altitude Azimuth Distance (km) Brightness Sun altitude
Exits shadow 20:43:16 49° 246° (WSW) 1,528 4.4 -34.7°
Maximum altitude 20:43:44 50° 234° (SW) 1,515 4.5 -34.7°
Drops below altitude 10° 20:50:57 10° 160° (SSE) 3,088 6.9 -34.3°
Sets 20:53:44 0° 154° (SSE) 4,014 7.7 -34.2°
